Weather History for KPSM - November, 2014

Change the Weather History Date:

Saturday, November 1, 2014

  Actual Average Record
Temperature  
Mean Temperature 40 °F -  
Max Temperature 43 °F 52 °F 77 °F (1974)
Min Temperature 38 °F 35 °F 20 °F (1983)
Degree Days  
Heating Degree Days 24    
Moisture  
Dew Point 36 °F    
Average Humidity 83    
Maximum Humidity 93    
Minimum Humidity 68    
Precipitation  
Precipitation 0.22 in - - ()
Sea Level Pressure  
Sea Level Pressure 29.90 in    
Wind  
Wind Speed 12 mph (North)    
Max Wind Speed 18 mph    
Max Gust Speed 29 mph    
Visibility 8 miles    
Events Rain    
Averages and records for this station are not official NWS values.
T = Trace of Precipitation, MM = Missing Value Source: NWS Daily Summary

Daily Weather History Graph

Daily Weather History Graph

Search for Another Location

Airport or City:

Trip Planner

Search our weather history database for the weather conditions in past years. The results will help you decide how hot, cold, wet, or windy it might be!

Date:

Astronomy

Nov. 01, 2014 Rise Set
Actual Time 7:17 AM EDT 5:35 PM EDT
Civil Twilight 6:48 AM EDT 6:04 PM EDT
Nautical Twilight 6:14 AM EDT 6:38 PM EDT
Astronomical Twilight 5:41 AM EDT 7:11 PM EDT
Moon 2:35 PM EDT (11/1) 1:00 AM EDT (11/1)
Length of Visible Light 11h 16m
Length of Day
10h 17m
Waxing Gibbous, 67% of the Moon is Illuminated
Nov 1
Waxing Gibbous
Nov 6
Full
Nov 14
Last Quarter
Nov 22
New
Nov 29
First Quarter

Hourly Weather History & Observations

Time (EDT) Temp. Windchill Dew Point Humidity Pressure Visibility Wind Dir Wind Speed Gust Speed Precip Events Conditions
12:58 AM 41.5 °F 36.4 °F 32.2 °F 69% 29.99 in 10.0 mi North 8.1 mph - N/A   Mostly Cloudy
1:58 AM 41.0 °F 35.2 °F 31.1 °F 68% 29.97 in 10.0 mi North 9.2 mph - N/A   Mostly Cloudy
2:58 AM 41.2 °F 35.0 °F 31.6 °F 69% 29.96 in 10.0 mi NNE 10.4 mph - N/A   Mostly Cloudy
3:58 AM 40.6 °F 34.3 °F 32.4 °F 72% 29.96 in 10.0 mi North 10.4 mph - N/A   Mostly Cloudy
4:58 AM 40.6 °F 33.8 °F 32.5 °F 73% 29.94 in 10.0 mi North 11.5 mph - N/A   Mostly Cloudy
5:58 AM 41.4 °F 34.3 °F 33.1 °F 72% 29.94 in 10.0 mi North 12.7 mph - N/A   Overcast
6:15 AM 41.0 °F 35.8 °F 33.8 °F 76% 29.92 in 10.0 mi NNW 8.1 mph - N/A   Overcast
6:58 AM 41.9 °F 36.3 °F 33.6 °F 72% 29.94 in 10.0 mi North 9.2 mph - N/A   Overcast
7:58 AM 43.2 °F 37.4 °F 34.7 °F 72% 29.94 in 10.0 mi North 10.4 mph - N/A   Overcast
8:30 AM 42.8 °F 36.2 °F 35.6 °F 76% 29.93 in 7.0 mi NNE 12.7 mph 17.3 mph N/A   Light Drizzle
8:58 AM 42.1 °F 35.2 °F 38.1 °F 86% 29.94 in 3.0 mi North 12.7 mph - 0.00 in Rain Light Rain
9:13 AM 42.8 °F 37.0 °F 39.2 °F 87% 29.91 in 5.0 mi North 10.4 mph 16.1 mph N/A   Overcast
9:58 AM 42.6 °F 35.6 °F 39.9 °F 90% 29.89 in 10.0 mi NNE 13.8 mph - 0.00 in   Overcast
10:14 AM 42.8 °F 35.8 °F 39.2 °F 87% 29.88 in 10.0 mi NNE 13.8 mph 19.6 mph N/A Rain Light Rain
10:58 AM 42.8 °F 35.8 °F 40.1 °F 90% 29.91 in 6.0 mi North 13.8 mph - 0.01 in Rain Light Rain
11:28 AM 42.8 °F 36.6 °F 41.0 °F 93% 29.90 in 5.0 mi North 11.5 mph - N/A Rain Light Rain
11:58 AM 43.2 °F 36.6 °F 40.8 °F 91% 29.89 in 5.0 mi North 12.7 mph 19.6 mph 0.05 in Rain Rain
12:58 PM 43.0 °F 36.4 °F 40.6 °F 91% 29.88 in 7.0 mi North 12.7 mph - 0.03 in Rain Light Rain
1:58 PM 43.2 °F 37.0 °F 40.5 °F 90% 29.88 in 6.0 mi North 11.5 mph - 0.02 in Rain Light Rain
2:13 PM 42.8 °F 35.8 °F 41.0 °F 93% 29.84 in 6.0 mi North 13.8 mph - N/A Rain Rain
2:58 PM 42.6 °F 34.9 °F 39.7 °F 90% 29.86 in 7.0 mi North 16.1 mph 21.9 mph 0.04 in Rain Light Rain
3:58 PM 41.5 °F 33.8 °F 38.3 °F 88% 29.86 in 6.0 mi NNE 15.0 mph 19.6 mph 0.00 in Rain Light Rain
4:58 PM 40.5 °F 31.5 °F 37.4 °F 89% 29.86 in 7.0 mi NNE 18.4 mph 26.5 mph 0.04 in Rain Light Rain
5:58 PM 39.6 °F 31.0 °F 36.5 °F 89% 29.89 in 7.0 mi North 16.1 mph 21.9 mph 0.01 in Rain Light Rain
6:58 PM 39.0 °F 29.9 °F 35.8 °F 88% 29.89 in 7.0 mi North 17.3 mph 25.3 mph 0.00 in Rain Light Rain
7:58 PM 38.7 °F 29.8 °F 35.4 °F 88% 29.88 in 10.0 mi North 16.1 mph 21.9 mph 0.01 in Rain Light Rain
8:58 PM 38.3 °F 29.7 °F 35.2 °F 89% 29.89 in 10.0 mi North 15.0 mph 20.7 mph 0.00 in Rain Light Rain
9:58 PM 38.3 °F 29.7 °F 35.1 °F 88% 29.88 in 10.0 mi North 15.0 mph 21.9 mph 0.01 in Rain Light Rain
10:09 PM 39.2 °F 30.8 °F 35.6 °F 87% 29.85 in 10.0 mi North 15.0 mph 21.9 mph N/A   Overcast
10:58 PM 38.7 °F 30.1 °F 35.2 °F 87% 29.86 in 10.0 mi North 15.0 mph 25.3 mph 0.00 in   Overcast
11:39 PM 39.2 °F 30.5 °F 33.8 °F 81% 29.83 in 10.0 mi North 16.1 mph 28.8 mph N/A   Overcast
11:58 PM 38.8 °F 30.0 °F 34.3 °F 84% 29.86 in 10.0 mi North 16.1 mph 25.3 mph N/A   Overcast